TimeMST,TemperatureF,Dew PointF,Humidity,Sea Level PressureIn,VisibilityMPH,Wind Direction,Wind SpeedMPH,Gust SpeedMPH,PrecipitationIn,Events,Conditions,WindDirDegrees,DateUTC
12:53 AM,17.1,10.9,77,30.11,10.0,South,5.8,-,N/A,,Overcast,190,2012-12-30 07:53:00
1:53 AM,17.1,12.9,84,30.12,2.0,South,4.6,-,0.00,Snow,Light Snow,190,2012-12-30 08:53:00
2:15 AM,15.8,12.2,86,29.95,4.0,SSW,4.6,-,0.00,Snow,Light Snow,200,2012-12-30 09:15:00
2:35 AM,14.0,10.4,86,29.96,8.0,SSW,4.6,-,0.00,Snow,Light Snow,210,2012-12-30 09:35:00
2:53 AM,12.9,10.0,88,30.15,9.0,SSW,4.6,-,0.00,Snow,Light Snow,210,2012-12-30 09:53:00
3:53 AM,12.0,9.0,88,30.17,5.0,South,4.6,-,0.00,Snow,Light Snow,180,2012-12-30 10:53:00
4:53 AM,14.0,10.0,84,30.18,6.0,South,5.8,-,0.00,Snow,Light Snow,180,2012-12-30 11:53:00
5:53 AM,10.9,8.1,88,30.23,4.0,SW,4.6,-,0.00,Snow,Light Snow,230,2012-12-30 12:53:00
6:53 AM,10.9,8.1,88,30.24,7.0,South,4.6,-,0.00,Snow,Light Snow,180,2012-12-30 13:53:00
7:53 AM,10.9,7.0,84,30.25,10.0,SSW,9.2,-,0.00,,Overcast,200,2012-12-30 14:53:00
8:53 AM,10.0,6.1,84,30.24,10.0,SSW,6.9,-,N/A,,Overcast,200,2012-12-30 15:53:00
9:53 AM,10.9,6.1,81,30.24,10.0,South,9.2,-,0.00,,Mostly Cloudy,190,2012-12-30 16:53:00
10:53 AM,15.1,8.1,74,30.25,10.0,SW,5.8,-,N/A,,Clear,220,2012-12-30 17:53:00
11:53 AM,18.0,10.0,71,30.22,10.0,SSW,8.1,-,N/A,,Clear,200,2012-12-30 18:53:00
12:53 PM,19.9,10.0,65,30.19,10.0,SSW,4.6,-,N/A,,Clear,200,2012-12-30 19:53:00
1:53 PM,21.0,10.9,65,30.18,10.0,South,5.8,-,N/A,,Clear,190,2012-12-30 20:53:00
2:53 PM,21.9,10.0,60,30.19,10.0,Calm,Calm,-,N/A,,Clear,0,2012-12-30 21:53:00
3:53 PM,19.9,9.0,62,30.21,10.0,ESE,4.6,-,N/A,,Clear,120,2012-12-30 22:53:00
4:53 PM,12.0,6.1,77,30.24,10.0,ESE,5.8,-,N/A,,Clear,120,2012-12-30 23:53:00
5:53 PM,5.0,1.0,84,30.28,10.0,SSE,6.9,-,N/A,,Clear,160,2012-12-31 00:53:00
6:53 PM,10.9,7.0,84,30.27,10.0,West,5.8,-,N/A,,Clear,260,2012-12-31 01:53:00
7:53 PM,5.0,-0.0,80,30.30,10.0,South,6.9,-,N/A,,Clear,190,2012-12-31 02:53:00
8:53 PM,8.1,1.9,76,30.28,10.0,SSW,10.4,-,N/A,,Clear,210,2012-12-31 03:53:00
9:53 PM,10.0,3.0,73,30.26,10.0,South,11.5,-,N/A,,Clear,190,2012-12-31 04:53:00
10:53 PM,10.0,3.9,76,30.24,10.0,SW,9.2,-,N/A,,Clear,220,2012-12-31 05:53:00
11:53 PM,7.0,1.9,80,30.25,10.0,SW,8.1,-,N/A,,Partly Cloudy,220,2012-12-31 06:53:00